Weather History for KW22 - May, 2013

Change the Weather History Date:

Thursday, May 23, 2013

  Actual Average (KEKN) Record (KEKN)
Temperature  
Mean Temperature 68 °F 60 °F  
Max Temperature 75 °F 72 °F 87 °F (1966)
Min Temperature 59 °F 48 °F 29 °F (1961)
Degree Days  
Heating Degree Days 0 6  
Month to date heating degree days 195  
Since 1 July heating degree days 5758  
Cooling Degree Days 2 1  
Month to date cooling degree days 10  
Year to date cooling degree days 13  
Growing Degree Days 18 (Base 50)    
Moisture  
Dew Point 62 °F    
Average Humidity 92    
Maximum Humidity 100    
Minimum Humidity 53    
Precipitation  
Precipitation 0.13 in 0.17 in 1.56 in (1985)
Month to date precipitation 3.78  
Year to date precipitation 17.87  
Snow  
Snow 0.00 in - - ()
Month to date snowfall  
Since 1 September snowfall  
Snow Depth -    
Sea Level Pressure  
Sea Level Pressure 29.90 in    
Wind  
Wind Speed 3 mph (WSW)    
Max Wind Speed 15 mph    
Max Gust Speed 28 mph    
Visibility 9 miles    
Events Rain    
T = Trace of Precipitation, MM = Missing Value Source: NWS Daily Summary

Daily Weather History Graph

Daily Weather History Graph

Search for Another Location

Airport or City:

Trip Planner

Search our weather history database for the weather conditions in past years. The results will help you decide how hot, cold, wet, or windy it might be!

Date:

Astronomy

May. 23, 2013 Rise Set
Actual Time 6:01 AM EDT 8:34 PM EDT
Civil Twilight 5:31 AM EDT 9:05 PM EDT
Nautical Twilight 4:52 AM EDT 9:43 PM EDT
Astronomical Twilight 4:10 AM EDT 10:26 PM EDT
Moon 7:05 PM EDT (5/23) 4:44 AM EDT (5/23)
Length of Visible Light 15h 33m
Length of Day
14h 32m
Waxing Gibbous, 97% of the Moon is Illuminated
May 23
Waxing Gibbous
May 25
Full
May 31
Last Quarter
Jun 8
New
Jun 16
First Quarter

Hourly Weather History & Observations

Time (EDT) Temp. Dew Point Humidity Pressure Visibility Wind Dir Wind Speed Gust Speed Precip Events Conditions
12:15 AM 62.6 °F 62.6 °F 100% 29.91 in 10.0 mi Calm Calm - N/A   Scattered Clouds
12:35 AM 62.6 °F 62.6 °F 100% 29.92 in 10.0 mi Calm Calm - N/A   Scattered Clouds
12:55 AM 62.6 °F 62.6 °F 100% 29.95 in 10.0 mi West 13.8 mph - N/A   Mostly Cloudy
1:15 AM 64.4 °F 62.6 °F 94% 29.94 in 10.0 mi West 6.9 mph - N/A   Mostly Cloudy
1:35 AM 64.4 °F 64.4 °F 100% 29.93 in 10.0 mi Calm Calm - N/A   Mostly Cloudy
1:55 AM 62.6 °F 62.6 °F 100% 29.92 in 10.0 mi Calm Calm - N/A   Mostly Cloudy
2:15 AM 62.6 °F 62.6 °F 100% 29.92 in 10.0 mi South 3.5 mph - N/A   Mostly Cloudy
2:35 AM 62.6 °F 62.6 °F 100% 29.91 in 10.0 mi Calm Calm - N/A   Light Drizzle
2:55 AM 62.6 °F 62.6 °F 100% 29.91 in 5.0 mi Calm Calm - N/A Rain Light Rain
3:15 AM 62.6 °F 62.6 °F 100% 29.90 in 10.0 mi Calm Calm - N/A   Scattered Clouds
3:35 AM 62.6 °F 62.6 °F 100% 29.89 in 6.0 mi Calm Calm - N/A   Light Drizzle
3:55 AM 62.6 °F 62.6 °F 100% 29.89 in 10.0 mi Calm Calm - N/A   Scattered Clouds
4:15 AM 62.6 °F 62.6 °F 100% 29.89 in 10.0 mi Calm Calm - N/A   Scattered Clouds
4:35 AM 62.6 °F 62.6 °F 100% 29.89 in 7.0 mi Calm Calm - N/A   Mostly Cloudy
4:55 AM 62.6 °F 62.6 °F 100% 29.89 in 10.0 mi Calm Calm - N/A   Mostly Cloudy
5:15 AM 62.6 °F 62.6 °F 100% 29.90 in 7.0 mi Calm Calm - N/A   Drizzle
5:35 AM 62.6 °F 62.6 °F 100% 29.90 in 10.0 mi Calm Calm - N/A   Overcast
5:55 AM 62.6 °F 62.6 °F 100% 29.90 in 10.0 mi Calm Calm - N/A   Overcast
6:15 AM 62.6 °F 62.6 °F 100% 29.90 in 10.0 mi Calm Calm - N/A   Overcast
6:35 AM 62.6 °F 62.6 °F 100% 29.91 in 10.0 mi Calm Calm - N/A   Overcast
6:55 AM 62.6 °F 62.6 °F 100% 29.91 in 9.0 mi Calm Calm - N/A   Overcast
7:15 AM 62.6 °F 62.6 °F 100% 29.92 in 10.0 mi Calm Calm - N/A   Overcast
7:35 AM 62.6 °F 62.6 °F 100% 29.92 in 10.0 mi SW 5.8 mph - N/A   Overcast
7:55 AM 62.6 °F 62.6 °F 100% 29.92 in 10.0 mi SSW 6.9 mph - N/A   Overcast
8:15 AM 64.4 °F 64.4 °F 100% 29.93 in 10.0 mi SW 9.2 mph - N/A   Mostly Cloudy
8:35 AM 64.4 °F 64.4 °F 100% 29.93 in 10.0 mi SW 3.5 mph - N/A   Overcast
8:55 AM 64.4 °F 64.4 °F 100% 29.93 in 10.0 mi SW 8.1 mph - N/A   Overcast
9:15 AM 64.4 °F 64.4 °F 100% 29.94 in 10.0 mi SW 8.1 mph - N/A   Overcast
9:35 AM 64.4 °F 64.4 °F 100% 29.94 in 10.0 mi SW 8.1 mph - N/A   Overcast
9:55 AM 64.4 °F 64.4 °F 100% 29.94 in 10.0 mi WSW 4.6 mph - N/A   Overcast
10:15 AM 64.4 °F 64.4 °F 100% 29.94 in 10.0 mi SW 3.5 mph - N/A   Mostly Cloudy
10:35 AM 66.2 °F 64.4 °F 94% 29.94 in 10.0 mi SW 5.8 mph - N/A   Mostly Cloudy
10:55 AM 66.2 °F 62.6 °F 88% 29.94 in 10.0 mi WSW 6.9 mph - N/A   Mostly Cloudy
11:15 AM 68.0 °F 62.6 °F 83% 29.93 in 10.0 mi SSW 6.9 mph - N/A   Mostly Cloudy
11:35 AM 68.0 °F 62.6 °F 83% 29.94 in 10.0 mi WSW 5.8 mph - N/A   Mostly Cloudy
11:55 AM 69.8 °F 60.8 °F 73% 29.93 in 10.0 mi Calm Calm - N/A   Mostly Cloudy
12:15 PM 69.8 °F 62.6 °F 78% 29.93 in 10.0 mi Calm Calm - N/A   Scattered Clouds
12:35 PM 69.8 °F 60.8 °F 73% 29.92 in 10.0 mi SW 4.6 mph - N/A   Partly Cloudy
12:55 PM 71.6 °F 60.8 °F 69% 29.91 in 10.0 mi SW 3.5 mph - N/A   Partly Cloudy
1:15 PM 73.4 °F 60.8 °F 65% 29.90 in 10.0 mi Calm Calm - N/A   Scattered Clouds
1:35 PM 73.4 °F 59.0 °F 61% 29.89 in 10.0 mi SSW 10.4 mph - N/A   Partly Cloudy
1:55 PM 73.4 °F 60.8 °F 65% 29.88 in 9.0 mi WSW 11.5 mph - N/A   Partly Cloudy
2:15 PM 73.4 °F 60.8 °F 65% 29.87 in 10.0 mi WSW 3.5 mph - N/A   Scattered Clouds
2:35 PM 73.4 °F 59.0 °F 61% 29.87 in 10.0 mi Calm Calm - N/A   Mostly Cloudy
2:55 PM 75.2 °F 57.2 °F 53% 29.86 in 10.0 mi SW 3.5 mph - N/A   Scattered Clouds
3:15 PM 73.4 °F 57.2 °F 57% 29.85 in 10.0 mi West 4.6 mph - N/A   Partly Cloudy
3:35 PM 75.2 °F 57.2 °F 53% 29.85 in 10.0 mi West 15.0 mph - N/A   Scattered Clouds
3:55 PM 62.6 °F 57.2 °F 82% 29.88 in 9.0 mi NW 5.8 mph 27.6 mph N/A   Mostly Cloudy
4:15 PM 64.4 °F 60.8 °F 88% 29.87 in 10.0 mi Calm Calm - N/A   Mostly Cloudy
4:35 PM 68.0 °F 57.2 °F 68% 29.87 in 10.0 mi West 4.6 mph - N/A   Scattered Clouds
4:55 PM 64.4 °F 57.2 °F 77% 29.87 in 10.0 mi West 6.9 mph - N/A   Mostly Cloudy
5:15 PM 64.4 °F 60.8 °F 88% 29.87 in 3.0 mi West 9.2 mph - 0.01 in   Drizzle
5:35 PM 62.6 °F 60.8 °F 94% 29.88 in 3.0 mi SW 10.4 mph - 0.04 in Rain Heavy Rain
5:55 PM 62.6 °F 60.8 °F 94% 29.87 in 4.0 mi Calm Calm - 0.06 in   Mostly Cloudy
6:15 PM 62.6 °F 62.6 °F 100% 29.87 in 10.0 mi Calm Calm - N/A   Scattered Clouds
6:35 PM 62.6 °F 62.6 °F 100% 29.88 in 10.0 mi SW 6.9 mph - N/A   Scattered Clouds
6:55 PM 62.6 °F 62.6 °F 100% 29.89 in 10.0 mi SW 5.8 mph - N/A   Scattered Clouds
7:15 PM 62.6 °F 62.6 °F 100% 29.90 in 10.0 mi WSW 11.5 mph - N/A   Mostly Cloudy
7:35 PM 62.6 °F 62.6 °F 100% 29.90 in 2.5 mi West 3.5 mph - 0.02 in Rain Light Rain
7:55 PM 60.8 °F 60.8 °F 100% 29.90 in 3.0 mi Calm Calm - 0.07 in Rain Light Rain
8:15 PM 60.8 °F 60.8 °F 100% 29.89 in 5.0 mi SSW 3.5 mph - N/A Rain Light Rain
8:35 PM 60.8 °F 60.8 °F 100% 29.89 in 3.0 mi Calm Calm - N/A   Mostly Cloudy
8:55 PM 60.8 °F 60.8 °F 100% 29.88 in 5.0 mi SW 6.9 mph - N/A   Mostly Cloudy
9:15 PM 60.8 °F 60.8 °F 100% 29.89 in 9.0 mi SSW 5.8 mph - N/A   Partly Cloudy
9:35 PM 60.8 °F 60.8 °F 100% 29.89 in 7.0 mi SW 4.6 mph - N/A   Mostly Cloudy
9:55 PM 60.8 °F 60.8 °F 100% 29.90 in 5.0 mi SSW 4.6 mph - N/A   Mostly Cloudy
10:15 PM 60.8 °F 60.8 °F 100% 29.91 in 5.0 mi Calm Calm - N/A   Mostly Cloudy
10:35 PM 60.8 °F 60.8 °F 100% 29.92 in 5.0 mi Calm Calm - N/A   Mostly Cloudy
10:55 PM 60.8 °F 60.8 °F 100% 29.92 in 10.0 mi West 8.1 mph - N/A   Mostly Cloudy
11:15 PM 60.8 °F 60.8 °F 100% 29.92 in 10.0 mi West 9.2 mph - N/A   Mostly Cloudy
11:35 PM 60.8 °F 60.8 °F 100% 29.92 in 10.0 mi WNW 4.6 mph - N/A   Mostly Cloudy
11:55 PM 59.0 °F 59.0 °F 100% 29.92 in 10.0 mi West 4.6 mph - N/A   Overcast